Terminal Aerodrome Forecast
Issued by NWS

Home | Current Version | Previous Version | Text Only | Print | Product List | Glossary On
Versions: 1 2 3 4 5 6 7 8 9 10 11 12 13 14 15 16
000
FTUS46 KSTO 202300
TAFRDD
TAF
KRDD 202326Z 2100/2124 19011KT 6SM -RA OVC008
     FM210800 18005KT 1SM BR OVC003
     FM212000 VRB04KT 4SM BR OVC008=

USA.gov is the U.S. government's official web portal to all federal, state and local government web resources and services.